View from above orbital plane
|
View from above satellite
|
Ground track
|
The orbit data is extracted from the following two-line orbital elements,
1 31598U 07023A 21106.19501618 -.00000254 00000-0 -25304-4 0 9990
2 31598 97.8892 290.9696 0001596 91.9050 268.2340 14.82154231749676
Epoch (UTC): | 16 April 2021 04:40:49 |
Eccentricity: | 0.0001596 |
inclination: | 97.8892° |
perigee height: | 621 km |
apogee height: | 623 km |
right ascension of ascending node: | 290.9696° |
argument of perigee: | 91.9050° |
revolutions per day: | 14.82154231 |
mean anomaly at epoch: | 268.2340° |
orbit number at epoch: | 74967 |
The dashed part of the orbit path shows where the satellite is in the earth's shadow,
|
|